STARLINK-30089 (56296 NORAD) Tracking and Keplerian Element Data

This shows tracking and keplerian element data for the satellite.

Feedback or suggestion? Click here.




ElementValue
Catalog56296
NameSTARLINK-30089
Epoch Orbit327
Epoch Day127.25001157
Epoch Year2023
RAAN95.3124
Inclination43.0009
Eccentricity0.0003315
Argument of Perigee196.9478
Mean Anonmoly103.5372
Mean Motion15.80775335
Decay Rate0.00333861
L11 56296U 23056L 23127.25001157 .00333861 00000+0 16179-2 0 9999
L22 56296 43.0009 95.3124 0003315 196.9478 103.5372 15.80775335 3273



Live tracking and technical data element details for STARLINK-30089 (NORAD 56296). STARLINK-30089 can be tracked NOW for your location showing map with azimuth and elevation plus other details from your city location.







IsCatalogInMostPopularTable: catalog: 56296, numindb: 4
Update: records affected: 1



GetName: 56296 STARLINK-30089

Hit Count: updated at: Wed, 07 Jun 2023 09:00:13 GMT